sat.trackr.live / text

‹ back to catalog

ONEWEB-0086

NORAD 45456 · 2020-020AJ

PAYLOAD ACTIVE UNKNOWN

§ Identity

Operator
Country
UK
Launch date
2020-03-21
Launch site
TYMSC
Launch vehicle
Mass (kg)
RCS (m²)

Purposes: comms

External: N2YO · Heavens-Above · Gunter

§ Orbital elements

Epoch: 2026-09-14T13:42:54.832608Z

Period
109.80 min
Inclination
87.8978°
Eccentricity
0.0002157
Mean motion
13.11418813 rev/d
Perigee alt
1,216.0 km
Apogee alt
1,219.3 km
Semi-major
7,595.8 km
B*
-8.8163e-5
RAAN
3.2974°
Arg perigee
80.9893°
Mean anomaly
279.1479°
Rev number
31,432

§ Raw data

ONEWEB-00861 45456U 20020AJ  26257.57146797 -.00000019  00000+0 -88163-4 0  99972 45456  87.8978   3.2974 0002157  80.9893 279.1479 13.11418813314323

JSON: /api/v1/satellites/45456 · /tle

For live sub-satellite position, see the globe view (requires WebGL).

§ Visibility from observer

Set your observer location to see the next 7 days of passes ≥ 10°. The values pass through the URL so the page stays shareable.

No JS? Fill the form by hand. The geolocation button needs JavaScript.